FW6909 Weather Reports


Display with metric or nautical units.
time (UTC)temp
F
wind
direction
speed
MPH
gust
MPH
rain 1hr
in
rain 24hr
in
rain mn
in
humidity
%
barometer
mb
20260509162031 52 44 4.0 8.0 0.00 0.00 0.00 65 1023.3
20260509161540 53 49 5.0 8.0 0.00 0.00 0.00 66 1023.3
20260509161031 53 76 2.0 8.0 0.00 0.00 0.00 65 1023.3
20260509160531 52 68 1.0 8.0 0.00 0.00 0.00 65 1023.3
20260509160036 52 152 3.0 8.0 0.00 0.00 0.00 65 1023.2
20260509155530 52 71 3.0 7.0 0.00 0.00 0.00 64 1023.1
20260509155030 52 91 3.0 6.0 0.00 0.00 0.00 65 1023.2
20260509154546 51 98 1.0 9.0 0.00 0.00 0.00 65 1023.3
20260509154031 51 77 3.0 9.0 0.00 0.00 0.00 66 1023.3
20260509153530 51 94 4.0 9.0 0.00 0.00 0.00 66 1023.4
20260509153042 51 105 4.0 9.0 0.00 0.00 0.00 67 1023.3
20260509152530 51 89 5.0 10.0 0.00 0.00 0.00 68 1023.4
20260509152031 51 96 5.0 10.0 0.00 0.00 0.00 69 1023.3
20260509151553 51 84 4.0 9.0 0.00 0.00 0.00 70 1023.4
20260509151032 51 84 5.0 9.0 0.00 0.00 0.00 70 1023.2
20260509150531 51 110 4.0 10.0 0.00 0.00 0.00 71 1023.4
20260509150043 51 91 5.0 10.0 0.00 0.00 0.00 71 1023.3
20260509145530 51 67 6.0 10.0 0.00 0.00 0.00 70 1023.5
20260509145031 51 61 6.0 11.0 0.00 0.00 0.00 70 1023.6
20260509144541 51 84 5.0 11.0 0.00 0.00 0.00 70 1023.5
20260509144030 51 72 7.0 11.0 0.00 0.00 0.00 70 1023.6
20260509143531 51 63 3.0 10.0 0.00 0.00 0.00 71 1023.5
20260509143053 51 214 3.0 10.0 0.00 0.00 0.00 72 1023.7
20260509142531 51 81 4.0 9.0 0.00 0.00 0.00 71 1023.8
20260509142032 51 319 3.0 9.0 0.00 0.00 0.00 74 1023.7
20260509141548 51 79 4.0 9.0 0.00 0.00 0.00 73 1023.7
20260509141034 51 86 3.0 9.0 0.00 0.00 0.00 72 1023.6
20260509140530 50 349 2.0 7.0 0.00 0.00 0.00 72 1023.7
20260509140042 50 324 3.0 9.0 0.00 0.00 0.00 71 1023.7
20260509135532 50 357 2.0 9.0 0.00 0.00 0.00 70 1023.7
20260509135029 51 84 3.0 9.0 0.00 0.00 0.00 66 1023.7
20260509134540 52 345 3.0 9.0 0.00 0.00 0.00 64 1023.7
20260509134029 52 79 2.0 9.0 0.00 0.00 0.00 64 1023.7
20260509133532 52 62 3.0 9.0 0.00 0.00 0.00 63 1023.6
20260509133036 52 112 3.0 8.0 0.00 0.00 0.00 64 1023.5
20260509132531 52 342 3.0 8.0 0.00 0.00 0.00 64 1023.5
20260509132030 52 72 4.0 8.0 0.00 0.00 0.00 64 1023.6
20260509131555 52 77 3.0 9.0 0.00 0.00 0.00 64 1023.5
20260509131030 52 113 3.0 9.0 0.00 0.00 0.00 63 1023.6
20260509130530 52 80 4.0 8.0 0.00 0.00 0.00 65 1023.6
20260509130105 52 75 3.0 9.0 0.00 0.00 0.00 64 1023.5
20260509125533 52 92 3.0 13.0 0.00 0.00 0.00 66 1023.5
20260509125030 52 96 4.0 13.0 0.00 0.00 0.00 65 1023.5
20260509124543 51 46 5.0 13.0 0.00 0.00 0.00 65 1023.6
20260509124031 51 64 6.0 10.0 0.00 0.00 0.00 65 1023.6
20260509123531 51 68 3.0 10.0 0.00 0.00 0.00 66 1023.6
20260509123107 51 136 5.0 10.0 0.00 0.00 0.00 65 1023.6
20260509122530 51 129 4.0 10.0 0.00 0.00 0.00 66 1023.7
20260509122030 51 72 5.0 15.0 0.00 0.00 0.00 65 1023.6
20260509121536 51 58 5.0 15.0 0.00 0.00 0.00 66 1023.6
20260509121033 51 37 6.0 15.0 0.00 0.00 0.00 65 1023.6
20260509120530 51 77 6.0 11.0 0.00 0.00 0.00 65 1023.6
20260509120049 52 139 4.0 9.0 0.00 0.00 0.00 64 1023.6
20260509115530 52 92 4.0 9.0 0.00 0.00 0.00 64 1023.7
20260509115030 52 105 4.0 11.0 0.00 0.00 0.00 64 1023.8
20260509114606 52 86 5.0 11.0 0.00 0.00 0.00 64 1023.7
20260509114031 51 82 5.0 11.0 0.00 0.00 0.00 64 1023.7
20260509113531 52 78 5.0 9.0 0.00 0.00 0.00 64 1023.7
20260509113039 52 93 4.0 13.0 0.00 0.00 0.00 65 1023.7
20260509112531 51 109 5.0 13.0 0.00 0.00 0.00 65 1023.8
20260509112031 51 46 5.0 10.0 0.00 0.00 0.00 66 1023.8
20260509111547 51 77 4.0 10.0 0.00 0.00 0.00 65 1023.8
20260509111031 51 73 4.0 8.0 0.00 0.00 0.00 65 1023.7
20260509110531 51 67 3.0 8.0 0.00 0.00 0.00 65 1023.8
20260509110053 51 89 3.0 8.0 0.00 0.00 0.00 66 1023.8
20260509105531 51 91 4.0 11.0 0.00 0.00 0.00 66 1023.9
20260509105031 51 81 4.0 11.0 0.00 0.00 0.00 66 1023.8
20260509104536 51 78 1.0 9.0 0.00 0.00 0.00 66 1023.8
20260509104030 50 101 4.0 9.0 0.00 0.00 0.00 66 1023.9
20260509103530 51 61 4.0 9.0 0.00 0.00 0.00 66 1023.9
20260509103047 50 110 4.0 7.0 0.00 0.00 0.00 67 1023.8
20260509102530 50 64 1.0 8.0 0.00 0.00 0.00 68 1023.8
20260509102031 50 68 3.0 8.0 0.00 0.00 0.00 67 1023.7
20260509101556 50 51 2.0 8.0 0.00 0.00 0.00 67 1023.7
20260509101032 50 77 4.0 8.0 0.00 0.00 0.00 67 1023.7
20260509100531 50 70 3.0 8.0 0.00 0.00 0.00 67 1023.8
20260509100038 50 65 4.0 9.0 0.00 0.00 0.00 68 1023.7
20260509095531 50 65 4.0 10.0 0.00 0.00 0.00 67 1023.6
20260509095031 50 58 5.0 10.0 0.00 0.00 0.00 68 1023.7
20260509094536 50 114 4.0 10.0 0.00 0.00 0.00 68 1023.5
20260509094033 50 127 4.0 10.0 0.00 0.00 0.00 68 1023.5
20260509093531 50 36 3.0 9.0 0.00 0.00 0.00 67 1023.6
20260509093037 50 76 3.0 9.0 0.00 0.00 0.00 67 1023.6
20260509092530 50 74 4.0 9.0 0.00 0.00 0.00 66 1023.6
20260509092032 50 71 3.0 15.0 0.00 0.00 0.00 66 1023.5
20260509091545 49 105 4.0 15.0 0.00 0.00 0.00 67 1023.6
20260509091030 49 66 6.0 10.0 0.00 0.00 0.00 66 1023.5
20260509090532 50 65 6.0 12.0 0.00 0.00 0.00 65 1023.6
20260509090044 49 66 6.0 12.0 0.00 0.00 0.00 66 1023.5
20260509085530 49 80 5.0 9.0 0.00 0.00 0.00 67 1023.6
20260509085033 49 68 5.0 10.0 0.00 0.00 0.00 68 1023.6
20260509084538 49 82 4.0 10.0 0.00 0.00 0.00 68 1023.5
20260509084027 49 89 5.0 10.0 0.00 0.00 0.00 68 1023.6
20260509083527 49 94 4.0 9.0 0.00 0.00 0.00 69 1023.6
20260509083045 49 79 5.0 9.0 0.00 0.00 0.00 69 1023.7
20260509082530 49 58 5.0 10.0 0.00 0.00 0.00 69 1023.7
20260509082031 49 77 4.0 10.0 0.00 0.00 0.00 69 1023.6
20260509081544 49 73 3.0 11.0 0.00 0.00 0.00 70 1023.6
20260509081033 48 96 5.0 11.0 0.00 0.00 0.00 71 1023.5
20260509080532 48 75 5.0 11.0 0.00 0.00 0.00 71 1023.5
20260509080038 48 60 4.0 10.0 0.00 0.00 0.00 71 1023.6
20260509075530 48 50 4.0 10.0 0.00 0.00 0.00 72 1023.5
20260509075031 48 90 5.0 10.0 0.00 0.00 0.00 72 1023.5
20260509074543 48 342 2.0 7.0 0.00 0.00 0.00 73 1023.5
20260509074033 48 0 2.0 6.0 0.00 0.00 0.00 74 1023.4
20260509073530 48 41 2.0 7.0 0.00 0.00 0.00 74 1023.3
20260509073044 48 60 2.0 7.0 0.00 0.00 0.00 75 1023.4
20260509072533 48 82 1.0 4.0 0.00 0.00 0.00 77 1023.5
20260509072033 47 353 0.0 3.0 0.00 0.00 0.00 77 1023.4
20260509071541 47 256 1.0 3.0 0.00 0.00 0.00 77 1023.3
20260509071031 47 0 0.0 3.0 0.00 0.00 0.00 78 1023.1
20260509070531 46 295 1.0 3.0 0.00 0.00 0.00 78 1023.3
20260509070037 46 324 1.0 2.0 0.00 0.00 0.00 78 1023.2
20260509065531 46 278 0.0 2.0 0.00 0.00 0.00 78 1023.1
20260509065030 45 278 0.0 2.0 0.00 0.00 0.00 78 1023.0
20260509064554 45 0 0.0 2.0 0.00 0.00 0.00 78 1023.1
20260509064032 45 276 1.0 2.0 0.00 0.00 0.00 78 1023.2
20260509063530 45 285 0.0 1.0 0.00 0.00 0.00 78 1023.2
20260509063041 45 0 0.0 1.0 0.00 0.00 0.00 79 1023.2
20260509062530 45 0 0.0 2.0 0.00 0.00 0.00 79 1023.1
20260509062030 44 0 0.0 2.0 0.00 0.00 0.00 79 1023.0
20260509061551 44 0 0.0 1.0 0.00 0.00 0.00 79 1023.0
20260509061027 44 284 0.0 1.0 0.00 0.00 0.00 79 1023.0
20260509060527 44 254 0.0 1.0 0.00 0.00 0.00 79 1023.0
20260509060038 44 0 0.0 1.0 0.00 0.00 0.00 79 1022.9
20260509055527 44 255 0.0 1.0 0.00 0.00 0.00 79 1022.8
20260509055027 43 0 0.0 1.0 0.00 0.00 0.00 80 1022.9
20260509054539 43 0 0.0 1.0 0.00 0.00 0.00 80 1022.9
20260509054031 43 0 0.0 1.0 0.00 0.00 0.00 80 1022.8
20260509053529 42 0 0.0 1.0 0.00 0.00 0.00 80 1022.7
20260509053037 42 224 0.0 1.0 0.00 0.00 0.00 80 1022.6
20260509052528 42 0 0.0 1.0 0.00 0.00 0.00 80 1022.5
20260509052032 42 0 0.0 1.0 0.00 0.00 0.00 80 1022.6
20260509051535 42 0 0.0 1.0 0.00 0.00 0.00 80 1022.5
20260509051030 42 206 0.0 1.0 0.00 0.00 0.00 80 1022.5
20260509050530 41 0 0.0 1.0 0.00 0.00 0.00 80 1022.5
20260509050042 41 0 0.0 0.0 0.00 0.00 0.00 80 1022.4
20260509045527 41 0 0.0 0.0 0.00 0.00 0.00 80 1022.3
20260509045027 41 0 0.0 0.0 0.00 0.00 0.00 80 1022.3
20260509044539 41 0 0.0 0.0 0.00 0.00 0.00 80 1022.2
20260509044026 41 0 0.0 1.0 0.00 0.00 0.00 80 1022.3
20260509043526 41 0 0.0 1.0 0.00 0.00 0.00 80 1022.2
20260509043035 41 116 0.0 1.0 0.00 0.00 0.00 81 1022.2
20260509042530 41 0 0.0 1.0 0.00 0.00 0.00 80 1022.0
20260509042031 41 123 0.0 1.0 0.00 0.00 0.00 80 1021.9
20260509041535 41 138 0.0 1.0 0.00 0.00 0.00 80 1022.0
20260509041033 41 255 0.0 2.0 0.00 0.00 0.00 81 1021.9
20260509040530 41 0 0.0 2.0 0.00 0.00 0.00 80 1021.9
20260509040042 40 278 0.0 2.0 0.00 0.00 0.00 81 1021.8
20260509035527 40 0 0.0 1.0 0.00 0.00 0.00 81 1021.9
20260509035027 40 0 0.0 1.0 0.00 0.00 0.00 81 1021.9
20260509034542 40 248 0.0 1.0 0.00 0.00 0.00 81 1021.7
20260509034027 40 219 0.0 2.0 0.00 0.00 0.00 81 1021.8
20260509033531 40 297 0.0 2.0 0.00 0.00 0.00 81 1021.6
20260509033038 40 271 0.0 1.0 0.00 0.00 0.00 81 1021.7
20260509032527 39 0 0.0 1.0 0.00 0.00 0.00 80 1021.8
20260509032030 40 0 0.0 1.0 0.00 0.00 0.00 80 1021.7
20260509031552 40 0 0.0 1.0 0.00 0.00 0.00 80 1021.6
20260509031031 40 0 0.0 1.0 0.00 0.00 0.00 80 1021.7
20260509030532 40 0 0.0 1.0 0.00 0.00 0.00 80 1021.7
20260509030042 40 0 0.0 1.0 0.00 0.00 0.00 80 1021.6
20260509025531 40 0 0.0 1.0 0.00 0.00 0.00 80 1021.7
20260509025031 40 259 0.0 1.0 0.00 0.00 0.00 80 1021.7
20260509024542 40 0 0.0 0.0 0.00 0.00 0.00 79 1021.8
20260509024032 40 0 0.0 2.0 0.00 0.00 0.00 79 1021.7
20260509023539 41 0 0.0 2.0 0.00 0.00 0.00 79 1021.7
20260509023040 41 269 0.0 2.0 0.00 0.00 0.00 79 1021.7
20260509022532 41 264 0.0 1.0 0.00 0.00 0.00 79 1021.7
20260509022030 41 281 0.0 1.0 0.00 0.00 0.00 79 1021.7
20260509021538 41 270 0.0 2.0 0.00 0.00 0.00 79 1021.7
20260509021030 41 0 0.0 2.0 0.00 0.00 0.00 78 1021.7
20260509020531 41 0 0.0 2.0 0.00 0.00 0.00 78 1021.8
20260509020045 41 262 0.0 2.0 0.00 0.00 0.00 78 1021.8
20260509015532 41 0 0.0 2.0 0.00 0.00 0.00 78 1021.7
20260509015032 41 243 0.0 2.0 0.00 0.00 0.00 78 1021.7
20260509014542 41 267 0.0 2.0 0.00 0.00 0.00 78 1021.7
20260509014031 41 269 0.0 2.0 0.00 0.00 0.00 78 1021.8
20260509013531 42 259 1.0 2.0 0.00 0.00 0.00 78 1021.7
20260509013042 42 278 0.0 2.0 0.00 0.00 0.00 78 1021.7
20260509012531 42 0 0.0 2.0 0.00 0.00 0.00 77 1021.7
20260509012031 42 255 0.0 2.0 0.00 0.00 0.00 77 1021.7
20260509011538 42 270 0.0 1.0 0.00 0.00 0.00 77 1021.6
20260509011031 42 0 0.0 2.0 0.00 0.00 0.00 77 1021.6
20260509010532 42 281 0.0 2.0 0.00 0.00 0.00 77 1021.5
20260509010046 42 242 0.0 2.0 0.00 0.00 0.00 77 1021.5
20260509005533 42 256 0.0 3.0 0.00 0.01 0.00 76 1021.5
20260509005033 42 233 1.0 3.0 0.00 0.01 0.00 76 1021.4
20260509004536 43 246 0.0 3.0 0.00 0.01 0.00 76 1021.4
20260509004032 43 269 0.0 2.0 0.00 0.01 0.00 76 1021.3
20260509003532 43 283 1.0 2.0 0.00 0.01 0.00 76 1021.3
20260509003047 43 275 1.0 2.0 0.00 0.01 0.00 76 1021.3
20260509002531 43 242 0.0 2.0 0.00 0.01 0.00 76 1021.3
20260509002031 43 0 0.0 2.0 0.00 0.01 0.00 76 1021.3
20260509001542 43 302 0.0 2.0 0.00 0.01 0.00 76 1021.3
20260509001032 44 213 0.0 1.0 0.00 0.01 0.00 76 1021.2
20260509000531 44 253 0.0 3.0 0.00 0.01 0.00 76 1021.2
20260509000043 44 0 1.0 3.0 0.00 0.01 0.00 76 1021.3
20260508235531 44 240 0.0 2.0 0.00 0.07 0.00 76 1021.2
20260508235031 44 0 0.0 2.0 0.00 0.07 0.00 75 1021.3
20260508234549 44 0 0.0 3.0 0.00 0.07 0.00 75 1021.3
20260508234031 44 278 1.0 4.0 0.00 0.07 0.00 75 1021.3
20260508233531 45 253 1.0 4.0 0.00 0.07 0.00 75 1021.2
20260508233036 45 286 1.0 4.0 0.00 0.07 0.00 75 1021.3
20260508232531 45 268 1.0 4.0 0.00 0.07 0.00 75 1021.3
20260508232031 45 282 1.0 4.0 0.00 0.07 0.00 75 1021.2
20260508231543 45 257 1.0 4.0 0.00 0.07 0.00 75 1021.2
20260508231032 45 256 1.0 4.0 0.00 0.07 0.00 75 1021.1
20260508230531 45 269 1.0 4.0 0.00 0.07 0.00 75 1021.1
20260508230057 45 294 0.0 4.0 0.00 0.07 0.00 75 1020.9
20260508225531 45 260 1.0 4.0 0.00 0.07 0.07 75 1021.0
20260508225031 46 258 1.0 3.0 0.00 0.07 0.07 74 1021.0
20260508224547 46 265 1.0 3.0 0.00 0.07 0.07 74 1020.9
20260508224031 46 306 1.0 3.0 0.00 0.07 0.07 74 1021.0
20260508223533 46 270 0.0 4.0 0.00 0.07 0.07 74 1020.9
20260508223037 46 244 0.0 4.0 0.00 0.07 0.07 73 1020.8
20260508222531 46 302 0.0 4.0 0.00 0.07 0.07 73 1020.8
20260508222031 46 245 1.0 3.0 0.00 0.07 0.07 73 1020.8
20260508221535 47 262 0.0 3.0 0.00 0.07 0.07 73 1020.8
20260508221032 47 233 1.0 4.0 0.00 0.07 0.07 73 1020.8
20260508220534 47 278 1.0 4.0 0.00 0.07 0.07 72 1020.8
20260508220111 47 247 1.0 4.0 0.00 0.07 0.07 72 1020.7
20260508215531 47 266 0.0 4.0 0.00 0.07 0.07 72 1020.8
20260508215031 47 243 1.0 4.0 0.00 0.07 0.07 72 1020.7
20260508214543 47 248 1.0 3.0 0.00 0.07 0.07 73 1020.7
20260508214031 47 261 1.0 3.0 0.00 0.07 0.07 73 1020.6
20260508213531 48 240 0.0 2.0 0.00 0.07 0.07 73 1020.5
20260508213053 48 0 0.0 2.0 0.00 0.07 0.07 72 1020.5
20260508212532 48 240 0.0 2.0 0.00 0.07 0.07 72 1020.3
20260508212030 48 254 0.0 2.0 0.00 0.07 0.07 72 1020.3
20260508211551 48 265 0.0 2.0 0.00 0.07 0.07 72 1020.3
20260508211035 49 235 0.0 2.0 0.00 0.07 0.07 72 1020.2
20260508210531 49 0 0.0 3.0 0.00 0.07 0.07 71 1020.1
20260508210044 49 0 1.0 3.0 0.00 0.07 0.07 71 1020.2
20260508205531 49 279 1.0 2.0 0.00 0.07 0.07 70 1020.0
20260508205031 50 257 1.0 2.0 0.00 0.07 0.07 70 1020.0
20260508204545 50 275 1.0 2.0 0.00 0.07 0.07 69 1020.0
20260508204034 50 273 1.0 3.0 0.00 0.07 0.07 69 1020.0
20260508203531 50 298 0.0 3.0 0.00 0.07 0.07 69 1020.0
20260508203049 50 236 0.0 3.0 0.00 0.07 0.07 68 1020.0
20260508202531 51 262 1.0 4.0 0.00 0.07 0.07 67 1019.9
20260508202031 51 250 1.0 4.0 0.00 0.07 0.07 67 1019.8
20260508201546 51 268 1.0 4.0 0.00 0.07 0.07 67 1019.8
20260508201031 51 248 1.0 3.0 0.00 0.07 0.07 66 1019.7
20260508200531 51 266 1.0 4.0 0.00 0.07 0.07 66 1019.7
20260508200038 52 268 2.0 4.0 0.00 0.07 0.07 65 1019.6
20260508195530 52 273 1.0 4.0 0.00 0.07 0.07 65 1019.5
20260508195031 52 280 1.0 4.0 0.00 0.07 0.07 64 1019.5
20260508194543 52 278 2.0 6.0 0.00 0.07 0.07 64 1019.4
20260508194030 52 325 1.0 6.0 0.00 0.07 0.07 64 1019.4
20260508193530 52 271 2.0 6.0 0.00 0.07 0.07 64 1019.3
20260508193048 52 290 2.0 6.0 0.00 0.07 0.07 64 1019.2
20260508192531 53 269 3.0 6.0 0.00 0.07 0.07 63 1019.1
20260508192032 53 308 1.0 7.0 0.00 0.07 0.07 63 1019.2
20260508191540 53 290 3.0 8.0 0.00 0.07 0.07 62 1019.1
20260508191031 53 245 3.0 8.0 0.00 0.07 0.07 61 1018.9
20260508190531 53 307 3.0 6.0 0.00 0.07 0.07 60 1019.0
20260508190058 53 245 2.0 7.0 0.00 0.07 0.07 59 1018.9
20260508185534 53 242 3.0 7.0 0.00 0.07 0.07 58 1018.8
20260508185031 54 283 3.0 6.0 0.00 0.07 0.07 56 1018.8
20260508184551 54 228 2.0 6.0 0.00 0.07 0.07 56 1018.7
20260508184031 54 236 1.0 6.0 0.00 0.07 0.07 55 1018.7
20260508183531 54 309 3.0 6.0 0.00 0.07 0.07 55 1018.7
20260508183046 54 259 2.0 5.0 0.00 0.07 0.07 54 1018.7
20260508182531 54 293 2.0 5.0 0.00 0.07 0.07 54 1018.7
20260508182030 54 276 1.0 5.0 0.00 0.07 0.07 55 1018.6
20260508181546 54 316 2.0 6.0 0.00 0.07 0.07 55 1018.5
20260508181030 54 346 2.0 6.0 0.00 0.07 0.07 54 1018.4
20260508180531 55 273 2.0 6.0 0.00 0.07 0.07 53 1018.5
20260508180051 55 281 2.0 5.0 0.00 0.07 0.07 53 1018.5
20260508175531 55 291 1.0 5.0 0.00 0.07 0.07 54 1018.4
20260508175031 55 315 2.0 6.0 0.00 0.07 0.07 54 1018.4
20260508174602 55 291 2.0 9.0 0.00 0.07 0.07 55 1018.4
20260508174032 55 18 3.0 9.0 0.00 0.07 0.07 55 1018.3
20260508173531 55 275 3.0 7.0 0.00 0.07 0.07 55 1018.4
20260508173038 55 298 3.0 8.0 0.00 0.07 0.07 54 1018.3
20260508172532 55 281 3.0 8.0 0.00 0.07 0.07 54 1018.2
20260508172031 55 288 3.0 9.0 0.00 0.07 0.07 54 1018.2
20260508171536 55 330 3.0 9.0 0.00 0.07 0.07 55 1018.1
20260508171032 55 272 3.0 9.0 0.00 0.07 0.07 54 1018.1
20260508170532 56 265 1.0 6.0 0.00 0.07 0.07 56 1018.0
20260508170043 55 270 2.0 8.0 0.00 0.07 0.07 56 1017.9
20260508165533 55 300 3.0 8.0 0.00 0.07 0.07 56 1017.9
20260508165031 55 302 3.0 8.0 0.00 0.07 0.07 55 1017.9
20260508164542 56 304 1.0 7.0 0.00 0.07 0.07 56 1017.8
20260508164031 56 276 2.0 8.0 0.00 0.07 0.07 56 1017.7
20260508163535 56 257 3.0 9.0 0.00 0.07 0.07 55 1017.7
20260508163042 56 288 3.0 9.0 0.00 0.07 0.07 55 1017.7
20260508162531 56 289 4.0 9.0 0.00 0.07 0.07 55 1017.7